Back to catalog

SL-12 R/B

AUX MOTOR

AliveHEO
NORAD 29680·ROCKET BODY·🇷🇺 Russia

Launched Dec 25, 2006 from Baikonur Cosmodrome

Loading…

Next Passes (next 24 hours)

TLE

FreshSource: Space-Track

Epoch: Sep 13, 2026, 21:28 UTC

1 29680U 06062G   26256.89508851  .00000169  00000-0  65343-3 0  9994
2 29680  65.1414   2.3829 5721120 206.7864 106.3290  4.25957959204218

Track SL-12 R/B in real time with AllMySat

Download on the App Store